Location: Fensholt
(55.9856°N, 10.0808°E)
Time: 20:16:03
(UTC+00:00)

CZ-4B R/B - Pass Details

Date: 07 June 2020
Orbit: 703 x 802 km, 98.8° (Epoch: 05 July)

Event Time Altitude Azimuth Distance (km) Brightness Sun altitude
Rises 00:51:04 0° 19° (NNE) 3,294 9.3 -8.8°
Reaches altitude 10° 00:53:31 10° 27° (NNE) 2,371 7.7 -8.7°
Maximum altitude 00:58:31 43° 98° (E) 1,115 4.5 -8.4°
Drops below altitude 10° 01:03:31 10° 170° (S) 2,377 5.6 -8.1°
Enters shadow 01:04:35 - 174° (S) 2,772 5.9 -8.1°
